Check out our new BloomSky Weather System.

Active alerts


No alerts


Thunder radar  blitzortung!


Rain radar more information rain snow radar


Visit our other weather sites:

Template documentation
and downloads

And another site



Weather Underground History page Text

Daily Summary for January 16, 2018 Units:  Metric    English   Both
« Previous Day
Next Day »
Daily Weekly Monthly Yearly Custom
  High: Low: Average:
Temperature: -17.8 °C -4.3 °C -1.6 °C
Dew Point: -17.8 °C -8.9 °C -3.4 °C
Humidity: Humidity % 70 % 87 %
Wind Speed: 0 km/h 0 km/h 9.7 km/h
Wind Gust: 0 km/h - -
Wind:- - WNW
Pressure: 0 hPa 1026.3 hPa -
Precipitation: 0 mm    
Historical Graphs
 
 
Tabular Data for January 16, 2018
Time Temperature Dew Point Pressure Wind Wind Speed Wind Gust Humidity Rainfall Rate (Hourly)
-17.8 °C -17.8 °C 0 hPa Calm     Humidity % 0 mm
00:05 12.1 °C 9.8 °C 1026.3 hPa Calm   3.2 km/h 86 % 0 mm
00:43 11.8 °C 10 °C 1027.3 hPa NNW 14.5 km/h 17.7 km/h 89 % 0 mm
00:50 11.6 °C 10.2 °C 1027.7 hPa NW 9.7 km/h 17.7 km/h 91 % 0 mm
00:57 11.4 °C 10.1 °C 1027.7 hPa NW 11.3 km/h 14.5 km/h 92 % 0 mm
01:06 11.2 °C 10.1 °C 1028 hPa NW 9.7 km/h 20.9 km/h 93 % 0 mm
01:21 9.7 °C 8.6 °C 1028.3 hPa NW 11.3 km/h 22.5 km/h 93 % 0 mm
02:00 7.8 °C 7 °C 1029.3 hPa NW 12.9 km/h 20.9 km/h 95 % 0 mm
02:06 7.3 °C 6.6 °C 1029.3 hPa NNW 14.5 km/h 22.5 km/h 95 % 0 mm
02:23 6.2 °C 5.5 °C 1029.7 hPa North 9.7 km/h 25.7 km/h 95 % 0 mm
03:01 4.2 °C 3.5 °C 1030.7 hPa NW 12.9 km/h 29 km/h 95 % 0 mm
03:09 3.8 °C 3.1 °C 1030.7 hPa ESE 8 km/h 29 km/h 95 % 0 mm
03:15 3.6 °C 3 °C 1031 hPa NW 11.3 km/h 27.4 km/h 96 % 0 mm
03:22 3.6 °C 3 °C 1031 hPa NNW 8 km/h 25.7 km/h 96 % 0 mm
03:51 2.7 °C 2.1 °C 1031.7 hPa NW 4.8 km/h 33.8 km/h 96 % 0 mm
03:56 2.5 °C 1.8 °C 1031.7 hPa NNE 17.7 km/h 32.2 km/h 95 % 0 mm
03:57 2.4 °C 1.7 °C 1031.7 hPa NW 16.1 km/h 32.2 km/h 95 % 0 mm
04:14 1.5 °C 0.9 °C 1032.1 hPa NNW 11.3 km/h 30.6 km/h 96 % 0 mm
04:55 0.2 °C -0.4 °C 1032.7 hPa NW 19.3 km/h 29 km/h 96 % 0 mm
05:01 0 °C -0.6 °C 1033.1 hPa NW 17.7 km/h 29 km/h 96 % 0 mm
05:08 -0.1 °C -0.7 °C 1033.1 hPa NW 9.7 km/h 29 km/h 96 % 0 mm
05:13 -0.2 °C -0.8 °C 1033.1 hPa NW 12.9 km/h 29 km/h 96 % 0 mm
05:31 -0.4 °C -1 °C 1033.4 hPa NW 12.9 km/h 27.4 km/h 96 % 0 mm
05:41 -0.4 °C -1 °C 1033.7 hPa NNW 12.9 km/h 27.4 km/h 96 % 0 mm
05:50 -0.6 °C -1.2 °C 1034.1 hPa NW 12.9 km/h 20.9 km/h 96 % 0 mm
05:59 -0.7 °C -1.3 °C 1034.1 hPa NW 16.1 km/h 27.4 km/h 96 % 0 mm
06:06 -0.7 °C -1.3 °C 1034.4 hPa North 6.4 km/h 27.4 km/h 96 % 0 mm
06:13 -0.7 °C -1.3 °C 1034.4 hPa NW 16.1 km/h 24.1 km/h 96 % 0 mm
06:20 -0.7 °C -1.3 °C 1034.4 hPa NNW 9.7 km/h 30.6 km/h 96 % 0 mm
06:30 -0.8 °C -1.4 °C 1034.8 hPa NNW 12.9 km/h 25.7 km/h 96 % 0 mm
06:37 -1 °C -1.6 °C 1034.8 hPa NW 9.7 km/h 27.4 km/h 96 % 0 mm
06:46 -1.2 °C -1.8 °C 1034.8 hPa NE 14.5 km/h 27.4 km/h 96 % 0 mm
06:52 -1.3 °C -1.9 °C 1034.8 hPa NNE 9.7 km/h 22.5 km/h 96 % 0 mm
07:07 -1.6 °C -2.2 °C 1035.1 hPa NNW 9.7 km/h 25.7 km/h 96 % 0 mm
07:24 -1.8 °C -2.5 °C 1035.4 hPa NNW 16.1 km/h 19.3 km/h 95 % 0 mm
07:43 -1.9 °C -2.6 °C 1035.8 hPa North 9.7 km/h 22.5 km/h 95 % 0 mm
07:49 -2.1 °C -2.8 °C 1035.8 hPa NNW 12.9 km/h 27.4 km/h 95 % 0 mm
07:57 -2.1 °C -2.8 °C 1035.8 hPa NNW 11.3 km/h 27.4 km/h 95 % 0 mm
08:13 -2.2 °C -3 °C 1036.5 hPa North 6.4 km/h 25.7 km/h 94 % 0 mm
08:20 -2.3 °C -3.1 °C 1036.5 hPa NNW 9.7 km/h 27.4 km/h 94 % 0 mm
08:38 -2.6 °C -3.4 °C 1036.8 hPa NW 9.7 km/h 27.4 km/h 94 % 0 mm
08:45 -2.7 °C -3.5 °C 1037.1 hPa NW 11.3 km/h 30.6 km/h 94 % 0 mm
08:59 -2.7 °C -3.5 °C 1037.1 hPa NNW 14.5 km/h 25.7 km/h 94 % 0 mm
09:11 -2.9 °C -3.7 °C 1037.5 hPa NW 11.3 km/h 25.7 km/h 94 % 0 mm
09:25 -2.9 °C -3.7 °C 1037.5 hPa NNW 12.9 km/h 29 km/h 94 % 0 mm
09:50 -2.8 °C -3.8 °C 1038.1 hPa North 3.2 km/h 27.4 km/h 93 % 0 mm
10:02 -2.8 °C -3.8 °C 1038.1 hPa NW 8 km/h 25.7 km/h 93 % 0 mm
10:17 -2.7 °C -3.7 °C 1038.1 hPa North 22.5 km/h 22.5 km/h 93 % 0 mm
10:24 -2.7 °C -3.7 °C 1038.1 hPa NNW 12.9 km/h 24.1 km/h 93 % 0 mm
10:37 -2.9 °C -3.9 °C 1038.1 hPa NNE 16.1 km/h 24.1 km/h 93 % 0 mm
10:49 -3 °C -4.1 °C 1038.1 hPa NW 9.7 km/h 25.7 km/h 92 % 0 mm
11:38 -3.9 °C -5 °C 1038.5 hPa NNW 20.9 km/h 22.5 km/h 92 % 0 mm
11:44 -3.9 °C -5.2 °C 1038.1 hPa NNW 1.6 km/h 22.5 km/h 91 % 0 mm
11:52 -3.8 °C -5.2 °C 1038.1 hPa North 11.3 km/h 33.8 km/h 90 % 0 mm
12:10 -3.6 °C -4.9 °C 1038.1 hPa SW 3.2 km/h 25.7 km/h 91 % 0 mm
12:16 -3.5 °C -4.8 °C 1037.8 hPa NW 9.7 km/h 25.7 km/h 91 % 0 mm
12:25 -3.4 °C -4.7 °C 1037.8 hPa NNE 17.7 km/h 22.5 km/h 91 % 0 mm
12:51 -3.7 °C -5.2 °C 1037.5 hPa WNW 4.8 km/h 27.4 km/h 89 % 0 mm
12:56 -3.6 °C -5.1 °C 1037.5 hPa NNW 9.7 km/h 27.4 km/h 89 % 0 mm
13:04 -3.4 °C -5 °C 1037.8 hPa NNW 12.9 km/h 27.4 km/h 89 % 0 mm
13:21 -3.8 °C -5.6 °C 1037.5 hPa NW 9.7 km/h 25.7 km/h 87 % 0 mm
13:28 -3.8 °C -5.5 °C 1037.5 hPa NW 3.2 km/h 25.7 km/h 88 % 0 mm
13:35 -3.8 °C -5.6 °C 1037.5 hPa NW 4.8 km/h 27.4 km/h 87 % 0 mm
13:44 -3.8 °C -5.3 °C 1037.1 hPa NNE 6.4 km/h 27.4 km/h 89 % 0 mm
13:56 -3.9 °C -5.4 °C 1037.5 hPa NNW 14.5 km/h 16.1 km/h 89 % 0 mm
14:15 -3.8 °C -5.3 °C 1037.5 hPa WNW 9.7 km/h 20.9 km/h 89 % 0 mm
14:32 -3.5 °C -5 °C 1036.8 hPa North 14.5 km/h 17.7 km/h 89 % 0 mm
14:45 -3.6 °C -5.4 °C 1036.8 hPa NW 9.7 km/h 24.1 km/h 87 % 0 mm
15:03 -3.9 °C -5.6 °C 1036.8 hPa NNW 9.7 km/h 22.5 km/h 88 % 0 mm
15:23 -4 °C -5.7 °C 1037.1 hPa North 9.7 km/h 22.5 km/h 88 % 0 mm
15:29 -4 °C -5.7 °C 1037.5 hPa NW 6.4 km/h 20.9 km/h 88 % 0 mm
15:36 -4.1 °C -5.8 °C 1037.5 hPa NW 6.4 km/h 19.3 km/h 88 % 0 mm
15:46 -4 °C -5.8 °C 1037.5 hPa NW 3.2 km/h 19.3 km/h 87 % 0 mm
16:16 -3.9 °C -6.2 °C 1037.5 hPa NW 3.2 km/h 27.4 km/h 84 % 0 mm
16:22 -3.8 °C -5.9 °C 1037.5 hPa NW 4.8 km/h 27.4 km/h 85 % 0 mm
16:29 -3.8 °C -6.1 °C 1037.5 hPa NW 6.4 km/h 27.4 km/h 84 % 0 mm
16:35 -3.8 °C -6.1 °C 1037.5 hPa NW 6.4 km/h 14.5 km/h 84 % 0 mm
16:42 -3.8 °C -6.3 °C 1037.5 hPa NW 6.4 km/h 20.9 km/h 83 % 0 mm
16:56 -3.8 °C -6.4 °C 1037.5 hPa NNW 6.4 km/h 20.9 km/h 82 % 0 mm
17:26 -3.7 °C -6.6 °C 1037.5 hPa NW 12.9 km/h 20.9 km/h 80 % 0 mm
17:48 -3.8 °C -6.9 °C 1037.8 hPa NW 6.4 km/h 22.5 km/h 79 % 0 mm
17:55 -3.8 °C -6.9 °C 1038.1 hPa NW 8 km/h 22.5 km/h 79 % 0 mm
18:03 -3.9 °C -7.2 °C 1038.1 hPa NW 8 km/h 22.5 km/h 78 % 0 mm
18:10 -3.9 °C -7.2 °C 1038.1 hPa NW 6.4 km/h 22.5 km/h 78 % 0 mm
18:23 -3.9 °C -7 °C 1038.1 hPa NNW 3.2 km/h 22.5 km/h 79 % 0 mm
18:32 -3.9 °C -7.2 °C 1038.1 hPa NNW 4.8 km/h 22.5 km/h 78 % 0 mm
18:41 -3.9 °C -7.5 °C 1038.1 hPa NW 3.2 km/h 24.1 km/h 76 % 0 mm
18:50 -4 °C -7.6 °C 1038.5 hPa NNW 8 km/h 25.7 km/h 76 % 0 mm
19:00 -3.9 °C -7.5 °C 1038.5 hPa NW 8 km/h 22.5 km/h 76 % 0 mm
19:06 -3.9 °C -7.7 °C 1038.1 hPa NNW 6.4 km/h 24.1 km/h 75 % 0 mm
19:55 -3.7 °C -7.3 °C 1039.2 hPa NNW 12.9 km/h 17.7 km/h 76 % 0 mm
20:14 -3.7 °C -7.8 °C 1039.2 hPa North 6.4 km/h 29 km/h 73 % 0 mm
20:30 -3.7 °C -7.7 °C 1039.5 hPa North 6.4 km/h 27.4 km/h 74 % 0 mm
20:45 -3.7 °C -7.8 °C 1039.8 hPa NNE 17.7 km/h 24.1 km/h 73 % 0 mm
20:55 -3.7 °C -7.8 °C 1039.8 hPa WNW 8 km/h 22.5 km/h 73 % 0 mm
21:01 -3.7 °C -7.8 °C 1039.8 hPa WNW 4.8 km/h 19.3 km/h 73 % 0 mm
21:12 -3.7 °C -7.7 °C 1039.8 hPa NNW 8 km/h 22.5 km/h 74 % 0 mm
21:30 -3.7 °C -7.8 °C 1039.8 hPa WNW 6.4 km/h 16.1 km/h 73 % 0 mm
21:41 -3.6 °C -7.7 °C 1039.8 hPa NW 6.4 km/h 19.3 km/h 73 % 0 mm
21:56 -3.6 °C -7.9 °C 1040.2 hPa North 4.8 km/h 17.7 km/h 72 % 0 mm
22:01 -3.6 °C -7.9 °C 1040.2 hPa West 3.2 km/h 17.7 km/h 72 % 0 mm
22:11 -3.6 °C -7.9 °C 1040.2 hPa NW 3.2 km/h 17.7 km/h 72 % 0 mm
22:18 -3.6 °C -8.1 °C 1040.2 hPa NNE 12.9 km/h 17.7 km/h 71 % 0 mm
22:29 -3.6 °C -7.9 °C 1040.2 hPa North 1.6 km/h 17.7 km/h 72 % 0 mm
22:45 -3.6 °C -8.1 °C 1040.2 hPa WNW 3.2 km/h 19.3 km/h 71 % 0 mm
22:52 -3.7 °C -8.2 °C 1040.5 hPa North 22.5 km/h 22.5 km/h 71 % 0 mm
23:02 -3.7 °C -8.4 °C 1040.2 hPa NNW 9.7 km/h 22.5 km/h 70 % 0 mm
23:54 -4.3 °C -8.9 °C 1040.2 hPa NNW 4.8 km/h 16.1 km/h 70 % 0 mm
Spring, Texas: Villages of Bridgestone
Compliments of Weather Underground - 1.75 mb

Script developed by  Jim McMurry - jmcmurry@mwt.net Adapted for the template by  Wim van der Kuil - Leuven-Template.eu

You find our weather info also at:

UK Metoffice

WeatherCloud

Weather Underground

Mid-South Weather Network

AWEKAS

Citizen Weather Observer Program (CWOP)

HAMweather, WeatherForYou, PWS Weather

Equipment we use:

Weather-station
Davis Vantage Vue

Weather-program
Meteohub

Weather-server
Debian 7.9 x86 (Guest)

Provider
DreamHost

Davis Vantage Vue

Meteohub

Debian 7.9 x86 (Guest)

DreamHost